GW4097 Weather Reports


Display with metric or nautical units.
time (UTC)temp
F
wind
direction
speed
MPH
gust
MPH
rain 1hr
in
rain 24hr
in
rain mn
in
humidity
%
barometer
mb
20260906231154 66 323 5.0 7.0 0.00 0.00 0.00 69 1017.4
20260906230653 67 331 9.0 11.0 0.00 0.00 0.00 68 1017.3
20260906230148 67 297 6.0 7.0 0.00 0.00 0.00 68 1017.4
20260906225641 66 306 6.0 9.0 0.00 0.00 0.00 68 1017.0
20260906225138 66 3 7.0 9.0 0.00 0.00 0.00 69 1017.2
20260906224632 66 329 6.0 8.0 0.00 0.00 0.00 69 1017.5
20260906224130 65 316 8.0 9.0 0.00 0.00 0.00 70 1017.4
20260906223625 65 295 5.0 6.0 0.00 0.00 0.00 70 1017.5
20260906223125 65 349 6.0 7.0 0.00 0.00 0.00 70 1017.4
20260906222624 65 314 6.0 9.0 0.00 0.00 0.00 70 1017.5
20260906222122 66 301 5.0 7.0 0.00 0.00 0.00 69 1017.7
20260906221620 65 305 3.0 4.0 0.00 0.00 0.00 69 1017.7
20260906221115 65 322 7.0 8.0 0.00 0.00 0.00 70 1017.6
20260906220611 65 316 5.0 7.0 0.00 0.00 0.00 70 1017.7
20260906220106 65 326 5.0 7.0 0.00 0.00 0.00 70 1017.5
20260906215604 65 346 4.0 6.0 0.00 0.00 0.00 70 1017.7
20260906215103 65 358 8.0 8.0 0.00 0.00 0.00 70 1017.6
20260906214601 65 306 4.0 4.0 0.00 0.00 0.00 70 1017.5
20260906214057 65 322 2.0 2.0 0.00 0.00 0.00 70 1017.6
20260906213555 66 341 6.0 7.0 0.00 0.00 0.00 69 1017.5
20260906213051 65 339 4.0 4.0 0.00 0.00 0.00 70 1017.5
20260906212544 65 313 4.0 4.0 0.00 0.00 0.00 71 1017.6
20260906212040 65 341 4.0 4.0 0.00 0.00 0.00 72 1017.5
20260906211539 64 321 2.0 3.0 0.00 0.00 0.00 73 1017.6
20260906211034 64 346 4.0 6.0 0.00 0.00 0.00 74 1017.9
20260906210530 64 358 6.0 7.0 0.00 0.00 0.00 74 1017.8
20260906210029 64 333 2.0 3.0 0.00 0.00 0.00 75 1017.7
20260906205525 64 339 2.0 3.0 0.00 0.00 0.00 75 1017.8
20260906205021 64 350 4.0 4.0 0.00 0.00 0.00 76 1018.0
20260906204520 63 341 3.0 3.0 0.00 0.00 0.00 77 1018.0
20260906204015 63 15 3.0 4.0 0.00 0.00 0.00 76 1018.1
20260906203509 63 350 4.0 4.0 0.00 0.00 0.00 76 1017.8
20260906203004 63 50 2.0 2.0 0.00 0.00 0.00 77 1017.9
20260906202500 62 339 2.0 3.0 0.00 0.00 0.00 78 1017.8
20260906201955 62 79 2.0 6.0 0.00 0.00 0.00 79 1018.0
20260906201444 62 28 2.0 3.0 0.00 0.00 0.00 79 1017.8
20260906200939 62 356 2.0 2.0 0.00 0.00 0.00 78 1018.0
20260906200435 62 57 2.0 3.0 0.00 0.00 0.00 78 1018.4
20260906195935 61 26 1.0 1.0 0.00 0.00 0.00 79 1018.2
20260906195431 62 19 2.0 2.0 0.00 0.00 0.00 79 1018.4
20260906194927 62 354 2.0 2.0 0.00 0.00 0.00 78 1018.2
20260906194423 61 355 1.0 2.0 0.00 0.00 0.00 79 1018.4
20260906193918 61 37 1.0 2.0 0.00 0.00 0.00 79 1018.4
20260906193413 61 22 2.0 2.0 0.00 0.00 0.00 79 1018.5
20260906192909 61 45 1.0 1.0 0.00 0.00 0.00 80 1018.4
20260906192408 61 18 1.0 1.0 0.00 0.00 0.00 80 1018.6
20260906191907 61 16 2.0 2.0 0.00 0.00 0.00 80 1018.7
20260906191402 60 80 6.0 7.0 0.00 0.00 0.00 79 1018.6
20260906190901 60 349 3.0 4.0 0.00 0.00 0.00 80 1018.7
20260906190400 60 26 5.0 7.0 0.00 0.00 0.00 81 1018.7
20260906185855 60 15 2.0 2.0 0.00 0.00 0.00 80 1018.5
20260906185354 61 9 6.0 8.0 0.00 0.00 0.00 80 1018.6
20260906184849 60 33 5.0 7.0 0.00 0.00 0.00 81 1018.7
20260906184344 59 9 6.0 7.0 0.00 0.00 0.00 82 1018.9
20260906183839 60 32 3.0 4.0 0.00 0.00 0.00 85 1018.8
20260906183335 60 27 4.0 4.0 0.00 0.00 0.00 85 1018.9
20260906182830 60 42 1.0 2.0 0.00 0.00 0.00 86 1018.9
20260906182325 59 7 2.0 3.0 0.00 0.00 0.00 86 1018.8
20260906181820 60 11 4.0 4.0 0.00 0.00 0.00 85 1019.1
20260906181317 60 20 3.0 4.0 0.00 0.00 0.00 84 1019.2
20260906180812 60 87 4.0 6.0 0.00 0.00 0.00 83 1019.2
20260906180312 60 43 2.0 2.0 0.00 0.00 0.00 83 1019.5
20260906175809 60 25 3.0 6.0 0.00 0.00 0.00 82 1018.9
20260906175307 60 15 4.0 6.0 0.00 0.00 0.00 83 1018.9
20260906174804 59 30 3.0 4.0 0.00 0.00 0.00 83 1018.8
20260906174303 59 5 4.0 6.0 0.00 0.00 0.00 84 1019.0
20260906173758 59 25 6.0 8.0 0.00 0.00 0.00 83 1019.3
20260906173254 57 318 7.0 10.0 0.00 0.00 0.00 84 1019.7
20260906172753 57 333 6.0 6.0 0.00 0.00 0.00 84 1019.8
20260906172249 57 320 8.0 11.0 0.00 0.00 0.00 83 1019.8
20260906171743 58 329 6.0 8.0 0.00 0.00 0.00 83 1019.7
20260906171239 57 312 9.0 9.0 0.00 0.00 0.00 83 1019.7
20260906170734 57 286 7.0 9.0 0.00 0.00 0.00 84 1020.0
20260906170231 57 314 9.0 10.0 0.00 0.00 0.00 83 1020.0
20260906165727 56 302 7.0 9.0 0.00 0.00 0.00 83 1020.3
20260906165226 56 309 10.0 11.0 0.00 0.00 0.00 84 1020.1
20260906164721 56 313 6.0 8.0 0.00 0.00 0.00 84 1020.3
20260906164216 56 316 6.0 8.0 0.00 0.00 0.00 84 1020.2
20260906163712 56 323 6.0 8.0 0.00 0.00 0.00 84 1020.2
20260906163208 55 306 8.0 10.0 0.00 0.00 0.00 85 1020.1
20260906162705 55 308 6.0 10.0 0.00 0.00 0.00 85 1020.4
20260906162205 55 305 5.0 6.0 0.00 0.00 0.00 85 1020.3
20260906161659 55 307 6.0 7.0 0.00 0.00 0.00 85 1020.6
20260906161158 55 312 5.0 7.0 0.00 0.00 0.00 84 1020.7
20260906160657 55 310 6.0 8.0 0.00 0.00 0.00 85 1020.4
20260906160156 55 324 10.0 11.0 0.00 0.00 0.00 85 1020.6
20260906155654 55 312 6.0 8.0 0.00 0.00 0.00 85 1020.4
20260906155150 55 312 6.0 8.0 0.00 0.00 0.00 85 1020.6
20260906154644 55 300 8.0 11.0 0.00 0.00 0.00 86 1020.6
20260906154139 55 320 11.0 13.0 0.00 0.00 0.00 86 1020.2
20260906153638 55 314 8.0 10.0 0.00 0.00 0.00 87 1020.4
20260906153133 55 305 13.0 16.0 0.00 0.00 0.00 87 1020.6
20260906152632 55 297 10.0 13.0 0.00 0.00 0.00 87 1020.7
20260906152127 55 326 11.0 13.0 0.00 0.00 0.00 88 1020.6
20260906151622 55 289 12.0 16.0 0.00 0.00 0.00 88 1020.9
20260906151118 55 301 10.0 13.0 0.00 0.00 0.00 88 1020.9
20260906150613 55 290 8.0 9.0 0.00 0.00 0.00 88 1020.8
20260906150109 56 305 9.0 11.0 0.00 0.00 0.00 88 1021.1
20260906145607 56 274 13.0 14.0 0.00 0.00 0.00 89 1021.1
20260906145101 56 268 9.0 10.0 0.00 0.00 0.00 89 1021.0
20260906144550 56 262 9.0 10.0 0.00 0.00 0.00 89 1021.2
20260906144046 57 262 10.0 13.0 0.00 0.00 0.00 89 1021.2
20260906143541 58 256 8.0 8.0 0.00 0.00 0.00 89 1021.2
20260906143037 58 258 7.0 8.0 0.00 0.00 0.00 89 1021.4
20260906142531 58 265 4.0 4.0 0.00 0.00 0.00 88 1021.3
20260906142027 59 327 3.0 3.0 0.00 0.00 0.00 87 1021.0
20260906141525 59 355 3.0 3.0 0.00 0.00 0.00 87 1020.8
20260906141020 59 13 0.0 1.0 0.00 0.00 0.00 87 1020.7
20260906140514 58 13 0.0 0.0 0.00 0.00 0.00 87 1020.4
20260906140014 59 43 1.0 2.0 0.00 0.00 0.00 87 1020.7
20260906135511 58 1 0.0 0.0 0.00 0.00 0.00 87 1020.7
20260906135007 58 15 3.0 4.0 0.00 0.00 0.00 86 1020.4
20260906134503 58 19 1.0 2.0 0.00 0.00 0.00 86 1020.6
20260906134003 58 23 0.0 1.0 0.00 0.00 0.00 85 1020.9
20260906133458 58 24 0.0 1.0 0.00 0.00 0.00 85 1020.7
20260906132954 58 9 1.0 1.0 0.00 0.00 0.00 86 1020.7
20260906132449 58 29 1.0 1.0 0.00 0.00 0.00 85 1020.4
20260906131944 58 20 1.0 2.0 0.00 0.00 0.00 85 1020.4
20260906131439 58 19 1.0 2.0 0.00 0.00 0.00 85 1020.6
20260906130935 58 32 2.0 2.0 0.00 0.00 0.00 85 1020.8
20260906130434 58 21 3.0 3.0 0.00 0.00 0.00 85 1020.6
20260906125928 58 12 2.0 3.0 0.00 0.00 0.00 85 1020.9
20260906125425 58 18 4.0 6.0 0.00 0.00 0.00 85 1020.7
20260906124920 58 23 5.0 7.0 0.00 0.00 0.00 85 1020.8
20260906124416 58 4 3.0 4.0 0.00 0.00 0.00 85 1020.7
20260906123915 58 6 5.0 6.0 0.00 0.00 0.00 85 1020.8
20260906123409 58 16 3.0 4.0 0.00 0.00 0.00 85 1020.7
20260906122904 58 2 3.0 3.0 0.00 0.00 0.00 85 1021.0
20260906122359 58 2 4.0 7.0 0.00 0.00 0.00 85 1020.8
20260906121856 57 340 5.0 8.0 0.00 0.00 0.00 85 1020.7
20260906121352 57 6 2.0 3.0 0.00 0.00 0.00 85 1020.7
20260906120848 57 3 4.0 7.0 0.00 0.00 0.00 86 1020.2
20260906120343 57 20 4.0 6.0 0.00 0.00 0.00 85 1020.1
20260906115839 57 14 6.0 8.0 0.00 0.00 0.00 85 1019.9
20260906115334 57 357 4.0 6.0 0.00 0.00 0.00 85 1020.3
20260906114834 57 0 5.0 7.0 0.00 0.00 0.00 85 1020.3
20260906114329 57 1 6.0 8.0 0.00 0.00 0.00 85 1020.1
20260906113824 57 9 7.0 8.0 0.00 0.00 0.00 85 1020.2
20260906113323 57 353 6.0 7.0 0.00 0.00 0.00 85 1020.3
20260906112819 57 355 6.0 7.0 0.00 0.00 0.00 85 1020.6
20260906112315 57 351 6.0 7.0 0.00 0.00 0.00 85 1020.4
20260906111814 57 354 7.0 8.0 0.00 0.00 0.00 85 1020.7
20260906111314 57 354 7.0 8.0 0.00 0.00 0.00 85 1020.7
20260906110809 57 9 6.0 7.0 0.00 0.00 0.00 85 1020.4
20260906110305 57 9 9.0 11.0 0.00 0.00 0.00 86 1020.6
20260906105804 57 355 6.0 8.0 0.00 0.00 0.00 85 1020.7
20260906105300 57 8 9.0 10.0 0.00 0.00 0.00 86 1020.7
20260906104755 57 354 9.0 11.0 0.00 0.00 0.00 86 1020.8
20260906104253 57 358 9.0 11.0 0.00 0.00 0.00 86 1020.7
20260906103751 57 338 6.0 7.0 0.00 0.00 0.00 85 1020.9
20260906103246 57 1 5.0 6.0 0.00 0.00 0.00 85 1021.0
20260906102741 57 359 8.0 9.0 0.00 0.00 0.00 85 1020.8
20260906102234 57 3 6.0 7.0 0.00 0.00 0.00 85 1020.9
20260906101729 57 0 8.0 9.0 0.00 0.00 0.00 85 1021.0
20260906101219 57 356 5.0 6.0 0.00 0.00 0.00 85 1020.9
20260906100714 57 355 6.0 7.0 0.00 0.00 0.00 85 1020.9
20260906100208 57 352 6.0 7.0 0.00 0.00 0.00 84 1020.8
20260906095704 57 344 6.0 8.0 0.00 0.00 0.00 84 1020.9
20260906095159 57 359 7.0 9.0 0.00 0.00 0.00 84 1020.7
20260906094657 57 7 9.0 10.0 0.00 0.00 0.00 84 1020.6
20260906094153 57 350 7.0 9.0 0.00 0.00 0.00 84 1020.7
20260906093649 57 351 7.0 9.0 0.00 0.00 0.00 84 1020.6
20260906093144 57 7 7.0 10.0 0.00 0.00 0.00 83 1020.4
20260906092638 58 358 8.0 8.0 0.00 0.00 0.00 83 1020.4
20260906092133 58 2 8.0 10.0 0.00 0.00 0.00 82 1020.4
20260906091629 58 12 9.0 13.0 0.00 0.00 0.00 82 1020.6
20260906091125 58 357 5.0 6.0 0.00 0.00 0.00 82 1020.6
20260906090620 58 338 6.0 8.0 0.00 0.00 0.00 82 1020.7
20260906090115 58 355 9.0 9.0 0.00 0.00 0.00 82 1020.8
20260906085614 58 5 6.0 9.0 0.00 0.00 0.00 82 1020.9
20260906085108 58 343 7.0 9.0 0.00 0.00 0.00 83 1021.1
20260906084603 57 344 5.0 7.0 0.00 0.00 0.00 83 1020.8
20260906084102 58 326 5.0 7.0 0.00 0.00 0.00 82 1021.0
20260906083558 58 339 4.0 4.0 0.00 0.00 0.00 82 1021.0
20260906083057 58 328 7.0 8.0 0.00 0.00 0.00 82 1021.1
20260906082553 58 329 4.0 6.0 0.00 0.00 0.00 82 1021.3
20260906082048 58 322 4.0 4.0 0.00 0.00 0.00 82 1021.4
20260906081544 58 333 3.0 3.0 0.00 0.00 0.00 82 1021.3
20260906081039 57 341 3.0 3.0 0.00 0.00 0.00 82 1021.5
20260906080536 57 324 3.0 3.0 0.00 0.00 0.00 83 1021.8
20260906080031 57 328 2.0 2.0 0.00 0.00 0.00 83 1021.5
20260906075525 57 1 4.0 6.0 0.00 0.00 0.00 84 1021.5
20260906075020 57 345 3.0 4.0 0.00 0.00 0.00 84 1021.5
20260906074515 57 358 6.0 7.0 0.00 0.00 0.00 84 1021.7
20260906074014 57 356 4.0 4.0 0.00 0.00 0.00 84 1021.5
20260906073509 57 350 5.0 6.0 0.00 0.00 0.00 84 1021.9
20260906073005 57 325 3.0 3.0 0.00 0.00 0.00 84 1021.8
20260906072500 57 331 3.0 3.0 0.00 0.00 0.00 84 1021.9
20260906071955 56 313 4.0 4.0 0.00 0.00 0.00 84 1022.1
20260906071451 56 307 4.0 4.0 0.00 0.00 0.00 84 1021.9
20260906070947 56 321 3.0 4.0 0.00 0.00 0.00 84 1021.8
20260906070442 56 322 3.0 3.0 0.00 0.00 0.00 83 1021.9
20260906065938 56 326 5.0 6.0 0.00 0.00 0.00 83 1022.1
20260906065432 56 320 5.0 6.0 0.00 0.00 0.00 83 1021.9
20260906064928 56 310 3.0 3.0 0.00 0.00 0.00 83 1022.1
20260906064424 56 323 5.0 6.0 0.00 0.00 0.00 83 1021.9
20260906063918 56 323 5.0 7.0 0.00 0.00 0.00 83 1022.0
20260906063414 56 317 9.0 9.0 0.00 0.00 0.00 83 1022.1
20260906062909 56 326 7.0 8.0 0.00 0.00 0.00 83 1022.2
20260906062408 56 306 6.0 7.0 0.00 0.00 0.00 83 1022.3
20260906061903 56 320 6.0 9.0 0.00 0.00 0.00 83 1022.3
20260906061354 56 319 5.0 7.0 0.00 0.00 0.00 83 1022.4
20260906060848 56 299 7.0 8.0 0.00 0.00 0.00 83 1022.3
20260906060346 56 300 9.0 10.0 0.00 0.00 0.00 84 1022.4
20260906055842 56 307 6.0 7.0 0.00 0.00 0.00 84 1022.2
20260906055337 56 294 8.0 9.0 0.00 0.00 0.00 83 1022.2
20260906054832 56 316 4.0 4.0 0.00 0.00 0.00 81 1022.2
20260906054327 57 324 3.0 3.0 0.00 0.00 0.00 79 1022.3
20260906053824 57 322 6.0 7.0 0.00 0.00 0.00 79 1022.0
20260906053319 57 326 4.0 4.0 0.00 0.00 0.00 77 1022.2
20260906052814 57 338 5.0 7.0 0.00 0.00 0.00 77 1022.2
20260906052311 57 337 4.0 4.0 0.00 0.00 0.00 77 1022.0
20260906051808 57 331 2.0 3.0 0.00 0.00 0.00 77 1021.9
20260906051307 57 339 3.0 3.0 0.00 0.00 0.00 77 1021.9
20260906050802 58 334 4.0 4.0 0.00 0.00 0.00 76 1022.1
20260906050258 58 318 6.0 6.0 0.00 0.00 0.00 76 1021.9
20260906045756 58 358 4.0 6.0 0.00 0.00 0.00 76 1021.8
20260906045251 58 346 4.0 6.0 0.00 0.00 0.00 76 1021.7
20260906044747 58 340 6.0 8.0 0.00 0.00 0.00 77 1021.7
20260906044242 58 339 6.0 8.0 0.00 0.00 0.00 76 1021.5
20260906043738 58 352 7.0 8.0 0.00 0.00 0.00 75 1021.4
20260906043233 59 329 9.0 11.0 0.00 0.00 0.00 74 1021.4
20260906042733 59 335 10.0 11.0 0.00 0.00 0.00 73 1021.7
20260906042232 59 310 7.0 9.0 0.00 0.00 0.00 72 1022.0
20260906041728 59 315 4.0 6.0 0.00 0.00 0.00 72 1021.8
20260906041223 59 4 7.0 8.0 0.00 0.00 0.00 71 1021.1
20260906040719 59 4 9.0 13.0 0.00 0.00 0.00 71 1020.8
20260906040214 59 343 7.0 8.0 0.00 0.00 0.00 71 1021.1
20260906035709 59 351 8.0 10.0 0.00 0.01 0.01 71 1020.9
20260906035204 59 0 6.0 8.0 0.00 0.01 0.01 71 1020.4
20260906034658 59 14 7.0 9.0 0.00 0.01 0.01 71 1020.9
20260906034154 59 353 6.0 8.0 0.00 0.01 0.01 70 1020.7
20260906033650 59 352 6.0 7.0 0.00 0.01 0.01 70 1021.0
20260906033149 59 355 7.0 9.0 0.00 0.01 0.01 69 1021.0
20260906032646 59 333 7.0 9.0 0.00 0.01 0.01 69 1021.1
20260906032146 60 351 5.0 6.0 0.00 0.01 0.01 68 1021.1
20260906031641 60 345 6.0 7.0 0.00 0.01 0.01 68 1021.1
20260906031136 60 325 8.0 9.0 0.00 0.01 0.01 68 1021.1
20260906030635 60 1 7.0 9.0 0.00 0.01 0.01 68 1021.0
20260906030131 60 340 9.0 11.0 0.00 0.01 0.01 67 1021.1
20260906025630 61 357 11.0 11.0 0.00 0.01 0.01 67 1021.0
20260906025129 61 1 9.0 11.0 0.00 0.01 0.01 66 1020.9
20260906024624 61 0 9.0 11.0 0.00 0.01 0.01 67 1020.2
20260906024119 61 17 7.0 8.0 0.00 0.01 0.01 67 1020.0
20260906023609 61 22 11.0 17.0 0.00 0.01 0.01 67 1019.7
20260906023104 62 32 9.0 13.0 0.00 0.01 0.01 67 1019.6
20260906022559 62 54 11.0 14.0 0.00 0.01 0.01 66 1019.2
20260906022055 62 12 10.0 13.0 0.00 0.01 0.01 64 1019.6
20260906021550 63 34 10.0 11.0 0.00 0.01 0.01 63 1019.6
20260906021049 63 348 9.0 13.0 0.00 0.01 0.01 62 1019.3
20260906020548 64 19 7.0 8.0 0.00 0.01 0.01 62 1019.5
20260906020043 64 15 7.0 8.0 0.00 0.01 0.01 61 1019.1
20260906015542 64 11 6.0 7.0 0.00 0.01 0.01 61 1019.3
20260906015042 65 23 6.0 7.0 0.00 0.01 0.01 59 1019.2
20260906014536 66 25 8.0 10.0 0.00 0.01 0.01 58 1019.3
20260906014032 66 9 11.0 13.0 0.00 0.01 0.01 56 1019.5
20260906013527 66 15 10.0 11.0 0.00 0.01 0.01 55 1019.2
20260906013023 67 18 7.0 8.0 0.00 0.01 0.01 55 1019.1
20260906012518 67 11 12.0 14.0 0.00 0.01 0.01 54 1019.0
20260906012017 68 1 12.0 14.0 0.00 0.01 0.01 53 1019.1
20260906011514 69 22 11.0 14.0 0.00 0.01 0.01 51 1019.3
20260906011013 70 354 12.0 15.0 0.00 0.01 0.01 50 1019.2
20260906010509 72 19 6.0 8.0 0.00 0.01 0.01 40 1019.1
20260906010005 73 23 4.0 6.0 0.00 0.01 0.01 40 1019.2
20260906005504 73 19 3.0 3.0 0.00 0.01 0.01 39 1019.0
20260906005003 73 29 4.0 6.0 0.00 0.01 0.01 39 1019.2
20260906004457 73 16 6.0 7.0 0.00 0.01 0.01 39 1019.5
20260906003952 74 27 6.0 8.0 0.00 0.01 0.01 39 1019.3
20260906003448 74 15 3.0 4.0 0.00 0.01 0.01 39 1019.2
20260906002943 74 20 6.0 8.0 0.00 0.01 0.01 38 1019.6
20260906002443 75 12 2.0 3.0 0.00 0.01 0.01 39 1019.2
20260906001937 75 44 4.0 6.0 0.00 0.01 0.01 38 1019.1
20260906001433 75 50 6.0 8.0 0.00 0.01 0.01 38 1019.3
20260906000928 75 8 11.0 14.0 0.00 0.01 0.01 38 1019.2
20260906000425 75 1 6.0 7.0 0.00 0.01 0.01 38 1019.5
20260905235918 76 2 4.0 7.0 0.00 0.01 0.01 38 1019.5
20260905235412 76 12 8.0 9.0 0.00 0.01 0.01 38 1019.5
20260905234908 77 32 4.0 6.0 0.00 0.01 0.01 36 1019.3
20260905234403 76 34 5.0 8.0 0.00 0.01 0.01 37 1019.5
20260905233858 76 14 5.0 6.0 0.00 0.01 0.01 37 1019.3
20260905233353 77 33 5.0 7.0 0.00 0.01 0.01 36 1019.5
20260905232852 77 51 4.0 6.0 0.00 0.01 0.01 36 1019.5
20260905232349 76 24 1.0 2.0 0.00 0.01 0.01 37 1019.6
20260905231844 75 63 5.0 6.0 0.00 0.01 0.01 37 1019.5